Time,TemperatureF,DewpointF,PressureIn,WindDirection,WindDirectionDegrees,WindSpeedMPH,WindSpeedGustMPH,Humidity,HourlyPrecipIn,Conditions,Clouds,dailyrainin,SoftwareType,DateUTC
2013-03-09 00:02:00,43.0,-99.9,-100.00,SE,140,10.0,-999.0,-999,0.00,,,0.00,,2013-03-09 06:02:00,
2013-03-09 00:11:00,43.0,-99.9,-100.00,SE,140,10.0,-999.0,-999,0.00,,,0.00,,2013-03-09 06:11:00,
2013-03-09 00:22:00,43.0,-99.9,-100.00,SE,140,10.0,-999.0,-999,0.00,,,0.00,,2013-03-09 06:22:00,
2013-03-09 00:32:00,44.0,-99.9,-100.00,SE,146,8.0,-999.0,-999,0.00,,,0.00,,2013-03-09 06:32:00,
2013-03-09 00:42:00,44.0,-99.9,-100.00,SE,146,8.0,-999.0,-999,0.00,,,0.00,,2013-03-09 06:42:00,
2013-03-09 00:52:00,44.0,-99.9,-100.00,SE,146,8.0,-999.0,-999,0.00,,,0.00,,2013-03-09 06:52:00,
2013-03-09 01:01:00,45.0,-99.9,-100.00,SE,141,11.0,-999.0,-999,0.00,,,0.00,,2013-03-09 07:01:00,
2013-03-09 01:11:00,45.0,-99.9,-100.00,SE,141,11.0,-999.0,-999,0.00,,,0.00,,2013-03-09 07:11:00,
2013-03-09 01:22:00,45.0,-99.9,-100.00,SE,141,11.0,-999.0,-999,0.00,,,0.00,,2013-03-09 07:22:00,
2013-03-09 01:32:00,43.0,-99.9,-100.00,SE,136,10.0,-999.0,-999,0.00,,,0.00,,2013-03-09 07:32:00,
2013-03-09 01:42:00,43.0,-99.9,-100.00,SE,136,10.0,-999.0,-999,0.00,,,0.00,,2013-03-09 07:42:00,
2013-03-09 01:52:00,43.0,-99.9,-100.00,SE,136,10.0,-999.0,-999,0.00,,,0.00,,2013-03-09 07:52:00,
2013-03-09 02:01:00,43.0,-99.9,-100.00,SSE,160,5.0,-999.0,-999,0.00,,,0.00,,2013-03-09 08:01:00,
2013-03-09 02:11:00,43.0,-99.9,-100.00,SSE,160,5.0,-999.0,-999,0.00,,,0.00,,2013-03-09 08:11:00,
2013-03-09 02:22:00,43.0,-99.9,-100.00,SSE,160,5.0,-999.0,-999,0.00,,,0.00,,2013-03-09 08:22:00,
2013-03-09 02:30:00,41.0,-99.9,-100.00,NW,312,4.0,-999.0,-999,0.00,,,0.00,,2013-03-09 08:30:00,
2013-03-09 02:32:00,41.0,-99.9,-100.00,SSW,203,2.0,-999.0,-999,0.00,,,0.00,,2013-03-09 08:32:00,
2013-03-09 02:42:00,41.0,-99.9,-100.00,SSW,203,2.0,-999.0,-999,0.00,,,0.00,,2013-03-09 08:42:00,
2013-03-09 02:52:00,41.0,-99.9,-100.00,SSW,203,2.0,-999.0,-999,0.00,,,0.00,,2013-03-09 08:52:00,
2013-03-09 03:02:00,41.0,-99.9,-100.00,NW,312,4.0,-999.0,-999,0.00,,,0.00,,2013-03-09 09:02:00,
2013-03-09 03:12:00,41.0,-99.9,-100.00,NW,312,4.0,-999.0,-999,0.00,,,0.00,,2013-03-09 09:12:00,
2013-03-09 03:22:00,41.0,-99.9,-100.00,NW,312,4.0,-999.0,-999,0.00,,,0.00,,2013-03-09 09:22:00,
2013-03-09 03:42:00,40.0,-99.9,-100.00,NW,305,6.0,-999.0,-999,0.00,,,0.00,,2013-03-09 09:42:00,
2013-03-09 03:52:00,40.0,-99.9,-100.00,NW,305,6.0,-999.0,-999,0.00,,,0.00,,2013-03-09 09:52:00,
2013-03-09 04:01:00,38.0,-99.9,-100.00,SW,233,3.0,-999.0,-999,0.00,,,0.00,,2013-03-09 10:01:00,
2013-03-09 04:11:00,38.0,-99.9,-100.00,SW,233,3.0,-999.0,-999,0.00,,,0.00,,2013-03-09 10:11:00,
2013-03-09 04:22:00,38.0,-99.9,-100.00,SW,233,3.0,-999.0,-999,0.00,,,0.00,,2013-03-09 10:22:00,
2013-03-09 04:32:00,39.0,-99.9,-100.00,WNW,289,3.0,-999.0,-999,0.00,,,0.00,,2013-03-09 10:32:00,
2013-03-09 04:42:00,39.0,-99.9,-100.00,WNW,289,3.0,-999.0,-999,0.00,,,0.00,,2013-03-09 10:42:00,
2013-03-09 04:52:00,39.0,-99.9,-100.00,WNW,289,3.0,-999.0,-999,0.00,,,0.00,,2013-03-09 10:52:00,
2013-03-09 05:01:00,38.0,-99.9,-100.00,SSW,192,3.0,-999.0,-999,0.03,,,0.03,,2013-03-09 11:01:00,
2013-03-09 05:11:00,38.0,-99.9,-100.00,SSW,192,3.0,-999.0,-999,0.03,,,0.03,,2013-03-09 11:11:00,
2013-03-09 05:22:00,38.0,-99.9,-100.00,SSW,192,3.0,-999.0,-999,0.03,,,0.03,,2013-03-09 11:22:00,
2013-03-09 05:32:00,38.0,-99.9,-100.00,South,184,3.0,-999.0,-999,0.09,,,0.09,,2013-03-09 11:32:00,
2013-03-09 05:42:00,38.0,-99.9,-100.00,South,184,3.0,-999.0,-999,0.09,,,0.09,,2013-03-09 11:42:00,
2013-03-09 05:52:00,38.0,-99.9,-100.00,South,184,3.0,-999.0,-999,0.09,,,0.09,,2013-03-09 11:52:00,
2013-03-09 06:02:00,38.0,-99.9,-100.00,South,174,3.0,-999.0,-999,0.12,,,0.15,,2013-03-09 12:02:00,
2013-03-09 06:12:00,38.0,-99.9,-100.00,South,174,3.0,-999.0,-999,0.12,,,0.15,,2013-03-09 12:12:00,
2013-03-09 06:22:00,38.0,-99.9,-100.00,South,174,3.0,-999.0,-999,0.12,,,0.15,,2013-03-09 12:22:00,
2013-03-09 06:32:00,39.0,-99.9,-100.00,SSE,154,6.0,-999.0,-999,0.14,,,0.23,,2013-03-09 12:32:00,
2013-03-09 06:42:00,39.0,-99.9,-100.00,SSE,154,6.0,-999.0,-999,0.14,,,0.23,,2013-03-09 12:42:00,
2013-03-09 06:53:00,39.0,-99.9,-100.00,SSE,154,6.0,-999.0,-999,0.14,,,0.23,,2013-03-09 12:53:00,
2013-03-09 07:02:00,39.0,-99.9,-100.00,SSE,158,6.0,-999.0,-999,0.17,,,0.32,,2013-03-09 13:02:00,
2013-03-09 07:11:00,39.0,-99.9,-100.00,SSE,158,6.0,-999.0,-999,0.17,,,0.32,,2013-03-09 13:11:00,
2013-03-09 07:22:00,39.0,-99.9,-100.00,SSE,158,6.0,-999.0,-999,0.17,,,0.32,,2013-03-09 13:22:00,
2013-03-09 07:32:00,40.0,-99.9,-100.00,SE,142,14.0,-999.0,-999,0.12,,,0.35,,2013-03-09 13:32:00,
2013-03-09 07:42:00,40.0,-99.9,-100.00,SE,142,14.0,-999.0,-999,0.12,,,0.35,,2013-03-09 13:42:00,
2013-03-09 07:52:00,40.0,-99.9,-100.00,SE,142,14.0,-999.0,-999,0.12,,,0.35,,2013-03-09 13:52:00,
2013-03-09 08:02:00,40.0,-99.9,-100.00,SE,144,11.0,-999.0,-999,0.08,,,0.40,,2013-03-09 14:02:00,
2013-03-09 08:11:00,40.0,-99.9,-100.00,SE,144,11.0,-999.0,-999,0.08,,,0.40,,2013-03-09 14:11:00,
2013-03-09 08:22:00,40.0,-99.9,-100.00,SE,144,11.0,-999.0,-999,0.08,,,0.40,,2013-03-09 14:22:00,
2013-03-09 08:32:00,39.0,-99.9,-100.00,SE,139,12.0,-999.0,-999,0.17,,,0.52,,2013-03-09 14:32:00,
2013-03-09 08:42:00,39.0,-99.9,-100.00,SE,139,12.0,-999.0,-999,0.17,,,0.52,,2013-03-09 14:42:00,
2013-03-09 08:52:00,39.0,-99.9,-100.00,SE,139,12.0,-999.0,-999,0.17,,,0.52,,2013-03-09 14:52:00,
2013-03-09 09:02:00,39.0,-99.9,-100.00,SE,146,12.0,-999.0,-999,0.22,,,0.62,,2013-03-09 15:02:00,
2013-03-09 09:12:00,39.0,-99.9,-100.00,SE,146,12.0,-999.0,-999,0.22,,,0.62,,2013-03-09 15:12:00,
2013-03-09 09:22:00,39.0,-99.9,-100.00,SE,146,12.0,-999.0,-999,0.22,,,0.62,,2013-03-09 15:22:00,
2013-03-09 09:32:00,39.0,-99.9,-100.00,SE,135,13.0,-999.0,-999,0.13,,,0.65,,2013-03-09 15:32:00,
2013-03-09 09:42:00,39.0,-99.9,-100.00,SE,135,13.0,-999.0,-999,0.13,,,0.65,,2013-03-09 15:42:00,
2013-03-09 09:52:00,39.0,-99.9,-100.00,SE,135,13.0,-999.0,-999,0.13,,,0.65,,2013-03-09 15:52:00,
2013-03-09 10:02:00,40.0,-99.9,-100.00,SE,138,11.0,-999.0,-999,0.03,,,0.65,,2013-03-09 16:02:00,
2013-03-09 10:12:00,40.0,-99.9,-100.00,SE,138,11.0,-999.0,-999,0.03,,,0.65,,2013-03-09 16:12:00,
2013-03-09 10:22:00,40.0,-99.9,-100.00,SE,138,11.0,-999.0,-999,0.03,,,0.65,,2013-03-09 16:22:00,
2013-03-09 10:32:00,41.0,-99.9,-100.00,SE,134,11.0,-999.0,-999,0.00,,,0.65,,2013-03-09 16:32:00,
2013-03-09 10:42:00,41.0,-99.9,-100.00,SE,134,11.0,-999.0,-999,0.00,,,0.65,,2013-03-09 16:42:00,
2013-03-09 10:52:00,41.0,-99.9,-100.00,SE,134,11.0,-999.0,-999,0.00,,,0.65,,2013-03-09 16:52:00,
2013-03-09 11:01:00,42.0,-99.9,-100.00,SE,143,11.0,-999.0,-999,0.00,,,0.65,,2013-03-09 17:01:00,
2013-03-09 11:11:00,42.0,-99.9,-100.00,SE,143,11.0,-999.0,-999,0.00,,,0.65,,2013-03-09 17:11:00,
2013-03-09 11:22:00,42.0,-99.9,-100.00,SE,143,11.0,-999.0,-999,0.00,,,0.65,,2013-03-09 17:22:00,
2013-03-09 11:32:00,42.0,-99.9,-100.00,SE,138,11.0,-999.0,-999,0.00,,,0.65,,2013-03-09 17:32:00,
2013-03-09 11:42:00,42.0,-99.9,-100.00,SE,138,11.0,-999.0,-999,0.00,,,0.65,,2013-03-09 17:42:00,
2013-03-09 11:52:00,42.0,-99.9,-100.00,SE,138,11.0,-999.0,-999,0.00,,,0.65,,2013-03-09 17:52:00,
2013-03-09 12:02:00,42.0,-99.9,-100.00,SE,140,9.0,-999.0,-999,0.00,,,0.65,,2013-03-09 18:02:00,
2013-03-09 12:11:00,42.0,-99.9,-100.00,SE,140,9.0,-999.0,-999,0.00,,,0.65,,2013-03-09 18:11:00,
2013-03-09 12:22:00,42.0,-99.9,-100.00,SE,140,9.0,-999.0,-999,0.00,,,0.65,,2013-03-09 18:22:00,
2013-03-09 12:32:00,42.0,-99.9,-100.00,SE,134,13.0,-999.0,-999,0.00,,,0.65,,2013-03-09 18:32:00,
2013-03-09 12:42:00,42.0,-99.9,-100.00,SE,134,13.0,-999.0,-999,0.00,,,0.65,,2013-03-09 18:42:00,
2013-03-09 12:52:00,42.0,-99.9,-100.00,SE,134,13.0,-999.0,-999,0.00,,,0.65,,2013-03-09 18:52:00,
2013-03-09 13:02:00,42.0,-99.9,-100.00,SE,136,11.0,-999.0,-999,0.00,,,0.65,,2013-03-09 19:02:00,
2013-03-09 13:12:00,42.0,-99.9,-100.00,SE,136,11.0,-999.0,-999,0.00,,,0.65,,2013-03-09 19:12:00,
2013-03-09 13:22:00,42.0,-99.9,-100.00,SE,136,11.0,-999.0,-999,0.00,,,0.65,,2013-03-09 19:22:00,
2013-03-09 13:32:00,45.0,-99.9,-100.00,SE,142,11.0,-999.0,-999,0.00,,,0.65,,2013-03-09 19:32:00,
2013-03-09 13:42:00,45.0,-99.9,-100.00,SE,142,11.0,-999.0,-999,0.00,,,0.65,,2013-03-09 19:42:00,
2013-03-09 13:52:00,45.0,-99.9,-100.00,SE,142,11.0,-999.0,-999,0.00,,,0.65,,2013-03-09 19:52:00,
2013-03-09 14:02:00,47.0,-99.9,-100.00,SE,139,12.0,-999.0,-999,0.00,,,0.65,,2013-03-09 20:02:00,
2013-03-09 14:12:00,47.0,-99.9,-100.00,SE,139,12.0,-999.0,-999,0.00,,,0.65,,2013-03-09 20:12:00,
2013-03-09 14:22:00,47.0,-99.9,-100.00,SE,139,12.0,-999.0,-999,0.00,,,0.65,,2013-03-09 20:22:00,
2013-03-09 14:32:00,51.0,-99.9,-100.00,SE,129,10.0,-999.0,-999,0.00,,,0.65,,2013-03-09 20:32:00,
2013-03-09 14:42:00,51.0,-99.9,-100.00,SE,129,10.0,-999.0,-999,0.00,,,0.65,,2013-03-09 20:42:00,
2013-03-09 14:53:00,51.0,-99.9,-100.00,SE,129,10.0,-999.0,-999,0.00,,,0.65,,2013-03-09 20:53:00,
2013-03-09 15:02:00,53.0,-99.9,-100.00,SE,143,7.0,-999.0,-999,0.00,,,0.65,,2013-03-09 21:02:00,
2013-03-09 15:12:00,53.0,-99.9,-100.00,SE,143,7.0,-999.0,-999,0.00,,,0.65,,2013-03-09 21:12:00,
2013-03-09 15:22:00,53.0,-99.9,-100.00,SE,143,7.0,-999.0,-999,0.00,,,0.65,,2013-03-09 21:22:00,
2013-03-09 15:32:00,54.0,-99.9,-100.00,SE,142,6.0,-999.0,-999,0.00,,,0.65,,2013-03-09 21:32:00,
2013-03-09 15:42:00,54.0,-99.9,-100.00,SE,142,6.0,-999.0,-999,0.00,,,0.65,,2013-03-09 21:42:00,
2013-03-09 15:52:00,54.0,-99.9,-100.00,SE,142,6.0,-999.0,-999,0.00,,,0.65,,2013-03-09 21:52:00,
2013-03-09 16:01:00,53.0,-99.9,-100.00,SSE,147,9.0,-999.0,-999,0.00,,,0.65,,2013-03-09 22:01:00,
2013-03-09 16:11:00,53.0,-99.9,-100.00,SSE,147,9.0,-999.0,-999,0.00,,,0.65,,2013-03-09 22:11:00,
2013-03-09 16:22:00,53.0,-99.9,-100.00,SSE,147,9.0,-999.0,-999,0.00,,,0.65,,2013-03-09 22:22:00,
2013-03-09 16:32:00,53.0,-99.9,-100.00,SSE,150,9.0,-999.0,-999,0.00,,,0.65,,2013-03-09 22:32:00,
2013-03-09 16:42:00,53.0,-99.9,-100.00,SSE,150,9.0,-999.0,-999,0.00,,,0.65,,2013-03-09 22:42:00,
2013-03-09 16:52:00,53.0,-99.9,-100.00,SSE,150,9.0,-999.0,-999,0.00,,,0.65,,2013-03-09 22:52:00,
2013-03-09 17:02:00,53.0,-99.9,-100.00,SSE,153,8.0,-999.0,-999,0.00,,,0.65,,2013-03-09 23:02:00,
2013-03-09 17:11:00,53.0,-99.9,-100.00,SSE,153,8.0,-999.0,-999,0.00,,,0.65,,2013-03-09 23:11:00,
2013-03-09 17:22:00,53.0,-99.9,-100.00,SSE,153,8.0,-999.0,-999,0.00,,,0.65,,2013-03-09 23:22:00,
2013-03-09 17:32:00,52.0,-99.9,-100.00,SSE,150,6.0,-999.0,-999,0.00,,,0.65,,2013-03-09 23:32:00,
2013-03-09 17:42:00,52.0,-99.9,-100.00,SSE,150,6.0,-999.0,-999,0.00,,,0.65,,2013-03-09 23:42:00,
2013-03-09 17:52:00,52.0,-99.9,-100.00,SSE,150,6.0,-999.0,-999,0.00,,,0.65,,2013-03-09 23:52:00,
2013-03-09 18:02:00,51.0,-99.9,-100.00,SSE,161,4.0,-999.0,-999,0.00,,,0.65,,2013-03-10 00:02:00,
2013-03-09 18:12:00,51.0,-99.9,-100.00,SSE,161,4.0,-999.0,-999,0.00,,,0.65,,2013-03-10 00:12:00,
2013-03-09 18:22:00,51.0,-99.9,-100.00,SSE,161,4.0,-999.0,-999,0.00,,,0.65,,2013-03-10 00:22:00,
2013-03-09 18:32:00,56.0,-99.9,-100.00,SSE,166,6.0,-999.0,-999,0.00,,,0.65,,2013-03-10 00:32:00,
2013-03-09 18:43:00,56.0,-99.9,-100.00,SSE,166,6.0,-999.0,-999,0.00,,,0.65,,2013-03-10 00:43:00,
2013-03-09 18:52:00,56.0,-99.9,-100.00,SSE,166,6.0,-999.0,-999,0.00,,,0.65,,2013-03-10 00:52:00,
2013-03-09 19:01:00,53.0,-99.9,-100.00,South,187,4.0,-999.0,-999,0.00,,,0.65,,2013-03-10 01:01:00,
2013-03-09 19:11:00,53.0,-99.9,-100.00,South,187,4.0,-999.0,-999,0.00,,,0.65,,2013-03-10 01:11:00,
2013-03-09 19:22:00,53.0,-99.9,-100.00,South,187,4.0,-999.0,-999,0.00,,,0.65,,2013-03-10 01:22:00,
2013-03-09 19:32:00,54.0,-99.9,-100.00,SSE,155,7.0,-999.0,-999,0.00,,,-99.99,,2013-03-10 01:32:00,
2013-03-09 19:42:00,54.0,-99.9,-100.00,SSE,155,7.0,-999.0,-999,0.00,,,-99.99,,2013-03-10 01:42:00,
2013-03-09 19:52:00,54.0,-99.9,-100.00,SSE,155,7.0,-999.0,-999,0.00,,,-99.99,,2013-03-10 01:52:00,
2013-03-09 20:01:00,53.0,-99.9,-100.00,SSE,158,6.0,-999.0,-999,0.00,,,-99.99,,2013-03-10 02:01:00,
2013-03-09 20:11:00,53.0,-99.9,-100.00,SSE,158,6.0,-999.0,-999,0.00,,,-99.99,,2013-03-10 02:11:00,
2013-03-09 20:22:00,53.0,-99.9,-100.00,SSE,158,6.0,-999.0,-999,0.00,,,-99.99,,2013-03-10 02:22:00,
2013-03-09 20:32:00,50.0,-99.9,-100.00,South,169,5.0,-999.0,-999,0.00,,,0.65,,2013-03-10 02:32:00,
2013-03-09 20:42:00,50.0,-99.9,-100.00,South,169,5.0,-999.0,-999,0.00,,,0.65,,2013-03-10 02:42:00,
2013-03-09 20:52:00,50.0,-99.9,-100.00,South,169,5.0,-999.0,-999,0.00,,,0.65,,2013-03-10 02:52:00,
2013-03-09 21:02:00,50.0,-99.9,-100.00,SSE,163,3.0,-999.0,-999,0.00,,,0.65,,2013-03-10 03:02:00,
2013-03-09 21:12:00,50.0,-99.9,-100.00,SSE,163,3.0,-999.0,-999,0.00,,,0.65,,2013-03-10 03:12:00,
2013-03-09 21:22:00,50.0,-99.9,-100.00,SSE,163,3.0,-999.0,-999,0.00,,,0.65,,2013-03-10 03:22:00,
2013-03-09 21:32:00,49.0,-99.9,-100.00,NW,310,1.0,-999.0,-999,0.00,,,0.65,,2013-03-10 03:32:00,
2013-03-09 21:42:00,49.0,-99.9,-100.00,NW,310,1.0,-999.0,-999,0.00,,,0.65,,2013-03-10 03:42:00,
2013-03-09 21:52:00,49.0,-99.9,-100.00,NW,310,1.0,-999.0,-999,0.00,,,0.65,,2013-03-10 03:52:00,
2013-03-09 22:02:00,49.0,-99.9,-100.00,NW,308,2.0,-999.0,-999,0.00,,,0.65,,2013-03-10 04:02:00,
2013-03-09 22:11:00,49.0,-99.9,-100.00,NW,308,2.0,-999.0,-999,0.00,,,0.65,,2013-03-10 04:11:00,
2013-03-09 22:22:00,49.0,-99.9,-100.00,NW,308,2.0,-999.0,-999,0.00,,,0.65,,2013-03-10 04:22:00,
2013-03-09 22:32:00,51.0,-99.9,-100.00,South,182,3.0,-999.0,-999,0.00,,,0.65,,2013-03-10 04:32:00,
2013-03-09 22:42:00,51.0,-99.9,-100.00,South,182,3.0,-999.0,-999,0.00,,,0.65,,2013-03-10 04:42:00,
2013-03-09 22:52:00,51.0,-99.9,-100.00,South,182,3.0,-999.0,-999,0.00,,,0.65,,2013-03-10 04:52:00,
2013-03-09 23:02:00,59.0,-99.9,-100.00,SE,141,9.0,-999.0,-999,0.00,,,0.65,,2013-03-10 05:02:00,
2013-03-09 23:11:00,59.0,-99.9,-100.00,SE,141,9.0,-999.0,-999,0.00,,,0.65,,2013-03-10 05:11:00,
2013-03-09 23:22:00,59.0,-99.9,-100.00,SE,141,9.0,-999.0,-999,0.00,,,0.65,,2013-03-10 05:22:00,
2013-03-09 23:32:00,59.0,-99.9,-100.00,SE,144,8.0,-999.0,-999,0.00,,,0.65,,2013-03-10 05:32:00,
2013-03-09 23:42:00,59.0,-99.9,-100.00,SE,144,8.0,-999.0,-999,0.00,,,0.65,,2013-03-10 05:42:00,
2013-03-09 23:52:00,59.0,-99.9,-100.00,SE,144,8.0,-999.0,-999,0.00,,,0.65,,2013-03-10 05:52:00,